| time (UTC) | temp C | wind direction | speed KPH | gust KPH | rain 1hr cm | rain 24hr cm | rain mn cm | humidity % | barometer mb |
| 20260504081559 | 1 | 0 | 0.0 | 0.0 | 0.00 | 0.00 | 0.00 | 88 | 1014.3 |
| 20260504081041 | 1 | 0 | 0.0 | 1.6 | 0.00 | 0.00 | 0.00 | 87 | 1014.2 |
| 20260504080541 | 1 | 0 | 0.0 | 3.2 | 0.00 | 0.00 | 0.00 | 87 | 1014.3 |
| 20260504060106 | 2 | 0 | 0.0 | 0.0 | 0.00 | 0.00 | 0.00 | 86 | 1014.7 |
| 20260504050544 | 1 | 266 | 1.6 | 3.2 | 0.00 | 0.00 | 0.00 | 85 | 1014.6 |
| 20260504050111 | 2 | 0 | 0.0 | 4.8 | 0.00 | 0.00 | 0.00 | 84 | 1014.6 |
| 20260504045541 | 2 | 0 | 1.6 | 4.8 | 0.00 | 0.00 | 0.00 | 84 | 1014.7 |
| 20260504045044 | 2 | 266 | 0.0 | 1.6 | 0.00 | 0.00 | 0.00 | 85 | 1014.7 |
| 20260504044545 | 2 | 0 | 0.0 | 1.6 | 0.00 | 0.00 | 0.00 | 85 | 1014.8 |
| 20260504044038 | 2 | 0 | 0.0 | 3.2 | 0.00 | 0.00 | 0.00 | 83 | 1014.9 |
| 20260504043541 | 2 | 0 | 0.0 | 3.2 | 0.00 | 0.00 | 0.00 | 84 | 1014.6 |
| 20260504043101 | 2 | 266 | 0.0 | 0.0 | 0.00 | 0.00 | 0.00 | 85 | 1014.6 |
| 20260504042538 | 2 | 0 | 0.0 | 0.0 | 0.00 | 0.00 | 0.00 | 85 | 1014.7 |
| 20260504042041 | 2 | 0 | 0.0 | 1.6 | 0.00 | 0.00 | 0.00 | 84 | 1014.7 |
| 20260504041550 | 2 | 0 | 0.0 | 4.8 | 0.00 | 0.00 | 0.00 | 84 | 1014.6 |
| 20260504041041 | 2 | 0 | 0.0 | 4.8 | 0.00 | 0.00 | 0.00 | 84 | 1014.6 |
| 20260504040541 | 2 | 266 | 3.2 | 4.8 | 0.00 | 0.00 | 0.00 | 84 | 1014.7 |
| 20260504040053 | 3 | 266 | 0.0 | 3.2 | 0.00 | 0.00 | 0.00 | 84 | 1014.8 |
| 20260504035541 | 3 | 266 | 1.6 | 4.8 | 0.00 | 0.00 | 0.00 | 84 | 1014.9 |
| 20260504035040 | 2 | 266 | 1.6 | 4.8 | 0.00 | 0.00 | 0.00 | 83 | 1014.7 |
| 20260504034551 | 2 | 264 | 0.0 | 0.0 | 0.00 | 0.00 | 0.00 | 84 | 1014.7 |
| 20260504034041 | 2 | 0 | 0.0 | 0.0 | 0.00 | 0.00 | 0.00 | 83 | 1014.7 |
| 20260504033538 | 2 | 0 | 0.0 | 0.0 | 0.00 | 0.00 | 0.00 | 82 | 1014.7 |
| 20260504033056 | 3 | 0 | 0.0 | 0.0 | 0.00 | 0.00 | 0.00 | 82 | 1014.7 |
| 20260504032538 | 3 | 0 | 0.0 | 0.0 | 0.00 | 0.00 | 0.00 | 81 | 1014.6 |
| 20260504032042 | 3 | 0 | 0.0 | 0.0 | 0.00 | 0.00 | 0.00 | 81 | 1014.7 |
| 20260504031557 | 3 | 0 | 0.0 | 0.0 | 0.00 | 0.00 | 0.00 | 81 | 1014.6 |
| 20260504031041 | 3 | 0 | 0.0 | 0.0 | 0.00 | 0.00 | 0.00 | 81 | 1014.6 |
| 20260504030540 | 3 | 0 | 0.0 | 0.0 | 0.00 | 0.00 | 0.00 | 80 | 1014.6 |
| 20260504030051 | 3 | 0 | 0.0 | 0.0 | 0.00 | 0.00 | 0.00 | 80 | 1014.4 |
| 20260504025542 | 3 | 0 | 0.0 | 3.2 | 0.00 | 0.00 | 0.00 | 80 | 1014.4 |
| 20260504025039 | 4 | 0 | 0.0 | 3.2 | 0.00 | 0.00 | 0.00 | 80 | 1014.4 |
| 20260504024550 | 4 | 0 | 0.0 | 3.2 | 0.00 | 0.00 | 0.00 | 79 | 1014.5 |
| 20260504024040 | 4 | 0 | 1.6 | 4.8 | 0.00 | 0.00 | 0.00 | 79 | 1014.5 |
| 20260504023539 | 4 | 265 | 0.0 | 4.8 | 0.00 | 0.00 | 0.00 | 78 | 1014.4 |
| 20260504023045 | 4 | 0 | 3.2 | 4.8 | 0.00 | 0.00 | 0.00 | 78 | 1014.3 |
| 20260504022539 | 5 | 265 | 3.2 | 4.8 | 0.00 | 0.00 | 0.00 | 76 | 1014.3 |
| 20260504022038 | 5 | 0 | 0.0 | 0.0 | 0.00 | 0.00 | 0.00 | 77 | 1014.4 |
| 20260504021545 | 5 | 0 | 0.0 | 0.0 | 0.00 | 0.00 | 0.00 | 77 | 1014.4 |
| 20260504021041 | 5 | 0 | 0.0 | 3.2 | 0.00 | 0.00 | 0.00 | 77 | 1014.4 |
| 20260504020538 | 5 | 0 | 0.0 | 3.2 | 0.00 | 0.00 | 0.00 | 76 | 1014.3 |
| 20260504020046 | 5 | 264 | 1.6 | 3.2 | 0.00 | 0.00 | 0.00 | 76 | 1014.3 |
| 20260504015538 | 5 | 0 | 0.0 | 4.8 | 0.00 | 0.00 | 0.00 | 75 | 1014.2 |
| 20260504015041 | 5 | 264 | 1.6 | 6.4 | 0.00 | 0.00 | 0.00 | 75 | 1014.2 |
| 20260504014557 | 5 | 265 | 3.2 | 6.4 | 0.00 | 0.00 | 0.00 | 75 | 1014.2 |
| 20260504014044 | 6 | 263 | 3.2 | 6.4 | 0.00 | 0.00 | 0.00 | 75 | 1014.2 |
| 20260504013542 | 6 | 259 | 1.6 | 4.8 | 0.00 | 0.00 | 0.00 | 76 | 1014.2 |
| 20260504013048 | 6 | 0 | 0.0 | 3.2 | 0.00 | 0.00 | 0.00 | 75 | 1014.1 |
| 20260504012543 | 6 | 0 | 0.0 | 6.4 | 0.00 | 0.00 | 0.00 | 74 | 1014.2 |
| 20260504012041 | 6 | 259 | 1.6 | 6.4 | 0.00 | 0.00 | 0.00 | 74 | 1014.1 |
| 20260504011549 | 6 | 259 | 4.8 | 6.4 | 0.00 | 0.00 | 0.00 | 72 | 1014.0 |
| 20260504011037 | 6 | 259 | 3.2 | 6.4 | 0.00 | 0.00 | 0.00 | 72 | 1014.0 |
| 20260504010541 | 6 | 259 | 1.6 | 4.8 | 0.00 | 0.00 | 0.00 | 72 | 1014.0 |
| 20260504010057 | 6 | 259 | 1.6 | 4.8 | 0.00 | 0.00 | 0.00 | 71 | 1014.0 |
| 20260504005542 | 7 | 259 | 3.2 | 6.4 | 0.00 | 0.00 | 0.00 | 69 | 1014.1 |
| 20260504005042 | 7 | 259 | 1.6 | 6.4 | 0.00 | 0.00 | 0.00 | 67 | 1014.0 |
| 20260504004545 | 7 | 259 | 1.6 | 6.4 | 0.00 | 0.00 | 0.00 | 65 | 1013.9 |
| 20260504004044 | 8 | 259 | 0.0 | 3.2 | 0.00 | 0.00 | 0.00 | 64 | 1013.9 |
| 20260504003538 | 8 | 0 | 0.0 | 4.8 | 0.00 | 0.00 | 0.00 | 64 | 1013.8 |
| 20260504003050 | 8 | 0 | 0.0 | 4.8 | 0.00 | 0.00 | 0.00 | 60 | 1013.8 |
| 20260504002538 | 9 | 0 | 0.0 | 0.0 | 0.00 | 0.00 | 0.00 | 59 | 1013.7 |
| 20260504002038 | 10 | 0 | 0.0 | 0.0 | 0.00 | 0.00 | 0.00 | 56 | 1013.7 |
| 20260504001559 | 10 | 0 | 0.0 | 0.0 | 0.00 | 0.00 | 0.00 | 56 | 1013.7 |
| 20260504001040 | 11 | 0 | 0.0 | 0.0 | 0.00 | 0.00 | 0.00 | 53 | 1013.7 |
| 20260504000540 | 11 | 0 | 0.0 | 0.0 | 0.00 | 0.00 | 0.00 | 49 | 1013.5 |
| 20260504000056 | 12 | 0 | 0.0 | 4.8 | 0.00 | 0.00 | 0.00 | 48 | 1013.5 |
| 20260503235542 | 12 | 0 | 0.0 | 4.8 | 0.00 | 0.00 | 0.00 | 46 | 1013.5 |
| 20260503235041 | 13 | 258 | 0.0 | 6.4 | 0.00 | 0.00 | 0.00 | 42 | 1013.5 |
| 20260503234550 | 13 | 257 | 0.0 | 11.3 | 0.00 | 0.00 | 0.00 | 41 | 1013.5 |
| 20260503234038 | 13 | 240 | 3.2 | 12.9 | 0.00 | 0.00 | 0.00 | 40 | 1013.4 |
| 20260503233541 | 13 | 267 | 1.6 | 14.5 | 0.00 | 0.00 | 0.00 | 39 | 1013.3 |
| 20260503233101 | 14 | 258 | 6.4 | 17.7 | 0.00 | 0.00 | 0.00 | 38 | 1013.4 |
| 20260503232540 | 14 | 235 | 8.0 | 20.9 | 0.00 | 0.00 | 0.00 | 39 | 1013.4 |
| 20260503232037 | 14 | 281 | 11.3 | 20.9 | 0.00 | 0.00 | 0.00 | 37 | 1013.2 |
| 20260503231552 | 14 | 296 | 8.0 | 20.9 | 0.00 | 0.00 | 0.00 | 37 | 1013.1 |
| 20260503231042 | 15 | 262 | 8.0 | 19.3 | 0.00 | 0.00 | 0.00 | 37 | 1013.1 |
| 20260503230539 | 15 | 246 | 3.2 | 14.5 | 0.00 | 0.00 | 0.00 | 38 | 1013.0 |
| 20260503230053 | 15 | 294 | 0.0 | 19.3 | 0.00 | 0.00 | 0.00 | 38 | 1013.0 |
| 20260503225537 | 15 | 265 | 8.0 | 20.9 | 0.00 | 0.00 | 0.00 | 37 | 1013.1 |
| 20260503225041 | 15 | 252 | 11.3 | 24.1 | 0.00 | 0.00 | 0.00 | 37 | 1013.1 |
| 20260503224550 | 15 | 281 | 12.9 | 24.1 | 0.00 | 0.00 | 0.00 | 38 | 1013.1 |
| 20260503224042 | 15 | 302 | 9.7 | 22.5 | 0.00 | 0.00 | 0.00 | 39 | 1013.0 |
| 20260503223540 | 15 | 294 | 12.9 | 22.5 | 0.00 | 0.00 | 0.00 | 39 | 1013.1 |
| 20260503223047 | 15 | 281 | 9.7 | 19.3 | 0.00 | 0.00 | 0.00 | 37 | 1013.3 |
| 20260503222541 | 15 | 259 | 6.4 | 24.1 | 0.00 | 0.00 | 0.00 | 37 | 1013.2 |
| 20260503222038 | 15 | 236 | 8.0 | 24.1 | 0.00 | 0.00 | 0.00 | 38 | 1013.2 |
| 20260503221557 | 15 | 246 | 9.7 | 22.5 | 0.00 | 0.00 | 0.00 | 39 | 1013.1 |
| 20260503221038 | 15 | 271 | 12.9 | 24.1 | 0.00 | 0.00 | 0.00 | 42 | 1013.3 |
| 20260503220541 | 15 | 295 | 12.9 | 24.1 | 0.00 | 0.00 | 0.00 | 39 | 1013.3 |
| 20260503220057 | 15 | 252 | 14.5 | 29.0 | 0.00 | 0.00 | 0.00 | 40 | 1013.3 |
| 20260503215537 | 14 | 271 | 12.9 | 29.0 | 0.00 | 0.00 | 0.00 | 40 | 1013.2 |
| 20260503215040 | 14 | 290 | 14.5 | 22.5 | 0.00 | 0.00 | 0.00 | 39 | 1013.2 |
| 20260503214554 | 15 | 240 | 6.4 | 25.7 | 0.00 | 0.00 | 0.00 | 37 | 1013.3 |
| 20260503214040 | 15 | 259 | 14.5 | 25.7 | 0.00 | 0.00 | 0.00 | 37 | 1013.3 |
| 20260503213539 | 15 | 281 | 11.3 | 20.9 | 0.00 | 0.00 | 0.00 | 40 | 1013.2 |
| 20260503213054 | 15 | 269 | 11.3 | 33.8 | 0.00 | 0.00 | 0.00 | 39 | 1013.3 |
| 20260503212537 | 15 | 267 | 12.9 | 38.6 | 0.00 | 0.00 | 0.00 | 39 | 1013.2 |
| 20260503212042 | 15 | 261 | 17.7 | 38.6 | 0.00 | 0.00 | 0.00 | 37 | 1013.2 |
| 20260503211550 | 15 | 279 | 19.3 | 38.6 | 0.00 | 0.00 | 0.00 | 38 | 1013.1 |
| 20260503211040 | 15 | 303 | 9.7 | 30.6 | 0.00 | 0.00 | 0.00 | 40 | 1013.2 |
| 20260503210540 | 15 | 288 | 14.5 | 30.6 | 0.00 | 0.00 | 0.00 | 40 | 1013.3 |
| 20260503210056 | 15 | 277 | 11.3 | 20.9 | 0.00 | 0.00 | 0.00 | 38 | 1013.1 |
| 20260503205541 | 15 | 273 | 8.0 | 20.9 | 0.00 | 0.00 | 0.00 | 40 | 1013.1 |
| 20260503205038 | 15 | 294 | 11.3 | 20.9 | 0.00 | 0.00 | 0.00 | 39 | 1013.3 |
| 20260503204606 | 15 | 210 | 11.3 | 24.1 | 0.00 | 0.00 | 0.00 | 39 | 1013.1 |
| 20260503204040 | 15 | 311 | 11.3 | 27.4 | 0.00 | 0.00 | 0.00 | 36 | 1013.3 |
| 20260503203541 | 15 | 246 | 8.0 | 27.4 | 0.00 | 0.00 | 0.00 | 40 | 1013.3 |
| 20260503203056 | 15 | 278 | 17.7 | 27.4 | 0.00 | 0.00 | 0.00 | 38 | 1013.3 |
| 20260503202541 | 15 | 263 | 9.7 | 37.0 | 0.00 | 0.00 | 0.00 | 38 | 1013.4 |
| 20260503202041 | 15 | 283 | 11.3 | 37.0 | 0.00 | 0.00 | 0.00 | 43 | 1013.4 |
| 20260503201545 | 15 | 286 | 20.9 | 32.2 | 0.00 | 0.00 | 0.00 | 40 | 1013.4 |
| 20260503201038 | 14 | 286 | 16.1 | 27.4 | 0.00 | 0.00 | 0.00 | 41 | 1013.4 |
| 20260503200540 | 13 | 275 | 19.3 | 32.2 | 0.00 | 0.00 | 0.00 | 42 | 1013.3 |
| 20260503200046 | 14 | 306 | 16.1 | 32.2 | 0.00 | 0.00 | 0.00 | 42 | 1013.5 |
| 20260503195540 | 13 | 288 | 16.1 | 29.0 | 0.00 | 0.00 | 0.00 | 41 | 1013.6 |
| 20260503195037 | 14 | 309 | 17.7 | 27.4 | 0.00 | 0.00 | 0.00 | 40 | 1013.6 |
| 20260503194607 | 14 | 319 | 14.5 | 25.7 | 0.00 | 0.00 | 0.00 | 43 | 1013.6 |
| 20260503194041 | 13 | 315 | 19.3 | 29.0 | 0.00 | 0.00 | 0.00 | 41 | 1013.7 |
| 20260503193542 | 14 | 276 | 11.3 | 29.0 | 0.00 | 0.00 | 0.00 | 42 | 1013.7 |
| 20260503193047 | 13 | 320 | 16.1 | 29.0 | 0.00 | 0.00 | 0.00 | 38 | 1013.9 |
| 20260503192541 | 13 | 286 | 12.9 | 30.6 | 0.00 | 0.00 | 0.00 | 42 | 1013.8 |
| 20260503192041 | 14 | 281 | 19.3 | 37.0 | 0.00 | 0.00 | 0.00 | 36 | 1014.0 |
| 20260503191600 | 14 | 314 | 22.5 | 37.0 | 0.00 | 0.00 | 0.00 | 40 | 1014.0 |
| 20260503191042 | 14 | 267 | 12.9 | 30.6 | 0.00 | 0.00 | 0.00 | 40 | 1014.0 |
| 20260503190541 | 14 | 204 | 14.5 | 30.6 | 0.00 | 0.00 | 0.00 | 40 | 1014.0 |
| 20260503190058 | 14 | 287 | 17.7 | 32.2 | 0.00 | 0.00 | 0.00 | 43 | 1014.1 |
| 20260503185537 | 14 | 252 | 17.7 | 32.2 | 0.00 | 0.00 | 0.00 | 40 | 1014.1 |
| 20260503185041 | 14 | 264 | 8.0 | 25.7 | 0.00 | 0.00 | 0.00 | 45 | 1014.1 |
| 20260503184546 | 13 | 331 | 16.1 | 25.7 | 0.00 | 0.00 | 0.00 | 39 | 1014.1 |
| 20260503184041 | 13 | 242 | 16.1 | 30.6 | 0.00 | 0.00 | 0.00 | 45 | 1014.3 |
| 20260503183542 | 13 | 272 | 17.7 | 32.2 | 0.00 | 0.00 | 0.00 | 37 | 1014.3 |
| 20260503183101 | 13 | 308 | 14.5 | 32.2 | 0.00 | 0.00 | 0.00 | 40 | 1014.4 |
| 20260503182540 | 13 | 297 | 20.9 | 32.2 | 0.00 | 0.00 | 0.00 | 42 | 1014.4 |
| 20260503182040 | 13 | 303 | 8.0 | 33.8 | 0.00 | 0.00 | 0.00 | 43 | 1014.3 |
| 20260503181550 | 13 | 238 | 14.5 | 33.8 | 0.00 | 0.00 | 0.00 | 43 | 1014.3 |
| 20260503181040 | 13 | 298 | 12.9 | 38.6 | 0.00 | 0.00 | 0.00 | 41 | 1014.5 |
| 20260503180537 | 13 | 284 | 12.9 | 38.6 | 0.00 | 0.00 | 0.00 | 43 | 1014.5 |
| 20260503180105 | 13 | 263 | 8.0 | 29.0 | 0.00 | 0.00 | 0.00 | 41 | 1014.5 |
| 20260503175537 | 13 | 183 | 11.3 | 27.4 | 0.00 | 0.00 | 0.00 | 40 | 1014.5 |
| 20260503175040 | 13 | 252 | 19.3 | 27.4 | 0.00 | 0.00 | 0.00 | 40 | 1014.6 |
| 20260503174549 | 12 | 342 | 11.3 | 27.4 | 0.00 | 0.00 | 0.00 | 40 | 1014.5 |
| 20260503174041 | 12 | 264 | 11.3 | 32.2 | 0.00 | 0.00 | 0.00 | 43 | 1014.6 |
| 20260503173538 | 12 | 317 | 19.3 | 32.2 | 0.00 | 0.00 | 0.00 | 44 | 1014.7 |
| 20260503173134 | 12 | 317 | 14.5 | 32.2 | 0.00 | 0.00 | 0.00 | 45 | 1014.9 |
| 20260503172540 | 12 | 323 | 19.3 | 32.2 | 0.00 | 0.00 | 0.00 | 40 | 1014.8 |
| 20260503172039 | 12 | 291 | 12.9 | 22.5 | 0.00 | 0.00 | 0.00 | 41 | 1014.7 |
| 20260503171549 | 12 | 229 | 4.8 | 24.1 | 0.00 | 0.00 | 0.00 | 47 | 1014.8 |
| 20260503171045 | 12 | 267 | 14.5 | 32.2 | 0.00 | 0.00 | 0.00 | 41 | 1014.9 |
| 20260503170541 | 12 | 307 | 16.1 | 32.2 | 0.00 | 0.00 | 0.00 | 42 | 1014.9 |
| 20260503150541 | 10 | 285 | 19.3 | 35.4 | 0.00 | 0.00 | 0.00 | 46 | 1016.1 |
| 20260503131042 | 7 | 314 | 19.3 | 29.0 | 0.00 | 0.00 | 0.00 | 57 | 1016.3 |
| 20260503130542 | 7 | 294 | 16.1 | 27.4 | 0.00 | 0.00 | 0.00 | 59 | 1016.4 |
| 20260503130104 | 7 | 311 | 17.7 | 30.6 | 0.00 | 0.00 | 0.00 | 56 | 1016.4 |
| 20260503110540 | 3 | 292 | 9.7 | 16.1 | 0.00 | 0.00 | 0.00 | 67 | 1015.5 |